Kuchera_Ratio
13.1 13.2 13.1 13.2 13.4 13.7 13.7 13.6 13.8 13.4 13.8 13.8 14.2 14.2 14.2 14.3 14.5 14.5 13.9 14.1 14.2 14.4 14.4 14.7 14.8 14.4 14.5 14.4 14.1 14.0 13.9 13.8 13.3 13.6 13.8 14.1 14.0 13.8 13.7 13.7 14.2 14.2 13.8 13.9 13.4 13.7 15.2 15.4 15.3 14.5 13.9 14.9 14.9 14.7 14.6 14.5 13.9 14.3 14.3 14.4 14.5 14.5 14.3 14.7 15.5 15.4 13.5 10.3 11.7 11.6 11.9 12.4 13.2 7.3 13.7 13.6 9.9 9.3 7.2 8.7 9.0 9.2 9.8 10.1 10.1
13.6 13.6 13.7 13.6 14.2 14.2 14.3 14.2 14.2 14.3 14.7 14.8 15.0 14.8 14.8 14.8 15.0 15.2 15.2 15.0 15.1 15.3 15.3 15.3 15.4 15.3 15.4 15.2 14.9 14.8 14.9 14.7 14.7 14.8 15.2 15.2 15.1 14.1 14.4 14.9 15.1 15.1 14.6 15.0 14.6 14.1 14.5 16.2 16.0 15.2 14.5 16.3 16.4 16.1 16.1 15.7 15.9 15.8 15.3 15.2 15.5 15.5 15.1 15.6 16.0 16.0 16.0 13.3 12.9 11.2 12.1 8.3 13.5 8.2 14.2 14.4 13.8 11.1 10.8 11.1 10.8 10.3 10.8 11.0 11.3
13.9 13.8 13.9 14.2 14.4 14.2 14.4 14.9 14.8 15.0 15.2 15.5 15.9 15.8 15.7 15.7 15.5 16.4 16.0 16.1 16.0 15.9 16.2 16.2 16.2 16.2 16.3 16.1 15.9 15.9 15.9 16.0 15.7 15.9 16.0 16.1 16.3 16.0 15.5 15.8 16.1 16.7 17.1 16.7 16.0 15.7 16.5 16.9 17.2 16.0 15.7 16.5 16.5 16.4 15.7 16.1 16.0 16.3 16.4 15.6 15.7 14.9 14.3 14.3 15.6 16.8 16.8 16.4 13.5 13.8 13.0 13.3 13.3 13.5 12.3 13.0 11.0 11.3 14.4 14.7 12.8 12.3 11.9 11.6 12.1
14.4 14.3 14.5 14.7 14.7 14.8 14.8 15.0 15.4 15.4 15.7 15.4 16.1 16.1 16.2 16.4 16.3 17.2 16.9 17.2 17.6 17.0 16.9 16.9 17.4 17.5 17.8 17.4 17.3 17.3 17.4 17.4 17.4 17.1 17.2 17.2 17.4 17.4 17.0 17.0 17.3 17.6 18.1 18.4 18.1 17.9 18.2 18.2 17.7 16.7 16.7 17.3 17.2 16.7 16.2 15.9 16.1 16.1 16.2 16.0 15.6 15.9 15.4 15.2 15.3 16.2 17.0 17.4 16.1 14.6 14.1 13.5 13.7 12.3 12.5 10.6 14.3 15.3 15.2 12.7 13.1 13.1 13.0 12.7 12.6
15.2 15.2 15.3 15.7 15.6 15.9 16.0 15.9 16.4 16.5 16.7 16.3 16.5 16.6 16.9 17.2 17.4 18.2 18.1 18.8 18.5 18.5 18.4 18.0 18.8 19.0 19.2 19.1 18.9 19.0 18.9 18.8 18.9 18.7 18.4 18.2 18.3 18.6 18.6 18.5 18.6 18.9 18.8 18.7 18.2 18.7 18.8 18.7 18.2 17.6 17.6 18.0 17.8 17.3 17.0 17.0 16.8 16.9 17.1 16.7 16.8 16.8 16.2 16.0 16.2 16.0 16.9 17.5 16.7 14.7 13.8 13.9 13.1 12.9 12.5 13.5 14.2 14.3 16.3 16.3 16.4 16.6 13.9 13.7 13.5
15.7 16.0 15.9 16.3 16.4 16.7 16.9 17.0 17.3 17.7 17.6 17.6 17.4 17.5 17.8 18.0 18.6 19.0 18.6 19.9 19.6 19.6 19.6 19.8 19.8 20.2 20.1 19.9 19.9 20.2 19.9 19.8 19.9 20.0 19.8 19.6 19.6 19.4 19.8 19.9 20.0 20.1 20.0 19.7 19.4 19.1 19.0 18.8 18.3 18.1 18.3 18.7 18.6 18.1 18.0 18.2 17.9 18.1 18.1 17.8 17.8 17.8 18.1 18.0 17.6 17.9 17.8 17.6 17.0 17.1 14.9 15.1 15.0 14.1 13.2 13.1 14.0 15.2 15.7 16.3 17.1 17.1 17.2 17.3 14.5
16.2 16.7 16.6 16.9 17.4 17.4 17.7 17.8 18.2 18.6 18.7 18.7 18.4 19.0 19.3 19.2 19.6 20.0 19.3 20.2 20.5 20.8 20.8 20.9 21.0 20.7 21.1 20.7 21.2 21.0 21.1 20.9 21.0 20.9 20.9 20.7 20.8 21.1 21.4 21.4 21.2 21.0 20.6 20.2 19.7 19.3 19.0 18.8 18.6 18.3 18.6 18.5 18.5 18.6 18.4 18.4 18.1 18.1 17.6 18.1 18.2 18.6 18.9 18.6 18.2 18.5 18.5 18.5 18.0 17.2 17.1 15.5 14.9 16.8 14.9 13.4 14.0 13.9 16.3 17.4 17.2 17.9 17.7 17.8 17.9
17.3 17.8 18.1 18.6 18.4 18.9 18.6 18.8 19.2 19.7 20.0 19.7 20.0 20.2 20.5 20.7 21.1 20.6 20.6 21.1 20.9 21.1 21.4 21.6 21.7 21.4 21.7 21.6 21.7 21.7 22.1 22.2 22.1 21.9 21.7 21.8 22.0 22.2 22.0 22.1 21.8 21.4 20.9 20.3 19.8 19.7 19.5 19.2 19.0 18.7 18.3 18.1 17.9 17.9 17.5 18.2 17.8 18.2 17.6 17.5 18.0 18.2 18.5 18.1 18.2 18.1 18.1 18.2 18.1 18.1 17.1 17.3 16.6 15.3 14.4 14.6 16.2 16.9 16.2 17.1 18.5 18.1 18.4 18.4 18.1
18.8 18.7 19.0 19.2 19.2 19.6 19.8 19.8 20.1 20.2 20.4 20.8 21.4 21.6 21.6 21.7 22.0 22.2 22.3 22.5 22.2 22.4 21.7 22.2 22.9 22.8 22.5 22.5 22.7 22.4 22.8 23.1 22.6 22.6 22.9 22.7 22.5 22.7 22.3 22.1 21.8 21.6 21.1 20.6 20.1 20.0 20.0 19.8 19.6 19.3 18.7 17.9 17.3 17.1 17.0 16.8 17.8 19.0 19.0 18.5 19.0 18.7 18.9 18.7 18.6 18.6 18.7 18.9 19.6 18.6 18.5 18.3 17.6 17.3 17.7 17.4 17.9 18.2 17.0 16.5 17.6 16.9 17.6 18.4 18.7
18.5 18.7 19.8 19.8 19.7 19.8 20.1 20.5 20.7 21.1 21.3 21.9 22.2 22.4 22.6 22.8 24.0 24.0 23.7 23.4 24.1 22.5 24.5 23.9 23.8 23.9 23.8 23.8 23.6 23.6 23.7 23.3 22.5 21.8 21.2 21.9 22.0 21.7 21.4 21.3 21.2 21.3 21.4 21.5 21.2 20.8 20.8 20.7 20.0 18.6 18.1 17.7 17.3 16.8 16.7 17.0 17.2 17.9 19.0 19.3 20.1 20.2 20.3 20.6 20.6 20.1 20.0 20.4 20.1 19.5 19.8 19.6 18.6 18.0 18.4 18.0 16.8 16.8 17.5 17.4 18.3 17.7 17.6 19.5 19.7
18.9 19.1 20.1 19.9 20.1 20.3 20.5 20.6 21.1 22.1 22.0 22.8 22.9 23.4 23.5 24.7 25.4 24.9 24.7 24.9 24.9 24.6 24.0 25.2 25.3 24.7 24.8 24.8 24.9 24.5 24.2 23.7 22.6 20.7 19.9 19.3 20.6 21.5 21.7 21.8 21.5 21.6 21.5 21.5 21.7 21.4 20.9 20.3 20.1 19.1 18.3 17.9 18.2 18.1 18.5 18.3 18.3 18.3 18.3 18.5 18.7 20.1 21.3 21.5 21.5 20.9 21.3 21.2 20.4 20.4 20.6 20.4 19.2 17.9 18.2 17.9 17.3 17.4 17.7 17.7 18.1 18.6 20.0 20.7 24.1
19.4 19.7 19.7 19.7 19.7 20.1 20.7 21.1 22.0 22.5 22.6 22.9 22.9 23.4 23.7 24.6 25.6 25.4 25.4 25.4 24.8 25.4 26.0 25.8 25.8 26.9 25.9 26.2 26.5 26.1 25.7 23.8 21.5 20.8 20.2 19.7 19.8 21.1 21.3 21.6 21.5 21.4 21.3 21.2 20.8 20.5 20.7 20.5 20.0 19.5 19.7 20.0 20.0 20.0 19.7 19.3 19.4 19.4 19.3 19.2 19.2 19.0 18.7 20.1 21.5 21.9 21.5 21.6 21.4 20.7 20.4 20.6 19.8 19.2 19.5 19.0 19.2 18.3 18.2 18.4 19.7 20.6 21.2 21.7 22.3
19.9 20.2 20.2 20.4 20.8 21.3 22.0 22.5 23.1 23.4 23.5 23.7 23.8 24.8 25.3 25.4 25.7 26.0 26.4 25.6 25.6 26.3 26.0 25.7 27.4 26.6 27.5 28.3 28.5 27.4 27.7 24.5 22.1 21.3 20.7 20.1 19.5 20.1 21.3 21.4 21.6 21.7 21.3 21.4 21.8 22.3 22.4 22.4 22.3 21.4 21.4 19.6 20.2 22.7 24.2 23.7 20.7 19.8 19.8 19.8 19.9 19.8 19.7 19.2 18.4 19.9 20.4 21.2 21.7 21.7 20.6 20.2 20.5 20.1 19.0 19.7 19.2 20.9 21.5 21.2 21.4 21.6 21.8 22.4 22.5
20.3 20.7 20.8 21.1 21.9 22.6 23.0 23.7 24.3 24.3 24.4 24.7 25.3 25.8 25.9 26.5 26.0 26.2 25.9 26.0 26.3 26.6 26.6 26.5 26.5 28.5 28.8 29.2 28.8 28.4 28.4 25.3 22.5 21.8 21.1 20.4 19.9 20.1 22.0 22.3 22.7 23.3 23.6 23.6 23.6 23.7 23.5 23.0 23.3 24.3 25.6 25.3 24.4 24.5 25.8 25.9 25.7 25.2 25.1 24.6 24.6 22.4 20.6 20.1 20.0 19.7 19.7 21.1 22.0 22.7 21.1 19.5 20.9 19.8 19.2 18.5 20.3 22.0 22.3 22.2 22.1 22.2 22.4 22.2 21.0
21.7 21.2 21.4 21.8 23.0 23.9 24.2 24.9 25.3 25.3 25.4 25.6 25.9 26.6 26.5 26.8 26.5 26.6 26.6 26.7 27.0 27.5 27.3 28.2 28.6 28.4 29.3 28.5 28.6 28.5 28.3 24.7 22.7 21.8 21.3 20.8 20.4 20.7 22.9 23.4 24.0 24.7 24.9 25.3 25.1 24.7 23.9 23.1 23.6 24.3 25.0 26.3 26.3 24.8 26.0 26.5 26.6 26.5 26.1 26.0 24.8 24.4 23.7 23.2 23.3 23.1 22.5 22.3 22.4 22.3 21.6 20.4 20.0 19.8 20.3 20.2 20.6 21.1 21.1 22.3 22.3 22.5 22.3 22.5 23.2
22.4 22.0 22.9 23.9 24.9 25.0 25.6 26.1 26.5 26.5 26.5 26.9 27.4 27.3 27.3 27.5 27.9 27.4 27.1 27.4 27.2 27.1 27.9 28.0 29.1 29.0 28.5 29.0 29.4 29.6 29.3 24.2 22.8 22.2 21.6 21.4 20.9 23.1 24.2 24.9 25.7 26.0 25.9 25.8 25.4 24.8 24.4 24.0 24.5 25.3 26.2 26.5 23.7 21.2 21.4 22.4 24.3 25.5 25.9 25.8 25.5 24.7 24.3 21.6 18.8 18.3 19.5 19.9 20.2 20.8 21.2 19.6 18.7 18.7 18.6 18.7 20.8 20.9 20.9 20.8 22.1 22.8 23.0 23.7 24.1
23.7 23.5 25.0 25.6 26.3 26.4 26.7 27.5 27.8 27.8 27.5 27.9 28.4 28.3 28.3 28.9 28.9 28.2 29.0 28.5 28.0 28.6 29.0 28.8 28.5 28.9 29.0 28.7 29.6 29.7 29.9 26.5 23.5 22.7 22.2 21.7 22.4 24.6 24.7 25.2 25.8 26.1 26.2 25.5 24.9 24.5 24.1 23.4 22.9 23.7 24.7 26.5 22.7 21.3 20.5 21.6 23.7 24.4 24.9 25.6 25.4 25.6 25.6 24.0 20.0 18.4 17.8 17.3 16.8 16.5 16.6 16.8 16.6 15.9 15.9 15.7 17.6 18.6 20.4 21.9 22.8 21.5 23.4 24.5 23.9
24.7 25.9 26.8 26.8 27.2 27.7 27.7 28.1 28.6 28.5 28.7 29.8 29.7 29.3 29.5 29.6 29.7 28.8 29.1 29.2 29.2 28.9 28.6 28.7 28.6 28.5 28.6 29.3 29.6 29.8 29.4 27.7 26.0 23.8 22.8 22.2 23.1 24.8 25.4 26.1 27.0 26.7 26.6 25.8 25.3 25.1 24.2 21.9 21.5 22.6 23.9 24.8 22.4 21.8 20.3 21.5 24.7 25.7 26.7 27.2 27.9 27.4 26.6 24.8 24.3 22.4 19.2 18.5 18.4 18.1 17.8 17.7 17.9 17.8 17.5 17.2 17.2 18.4 22.5 24.6 23.2 22.8 24.6 24.1 25.6
26.3 27.7 28.0 27.7 28.2 28.0 28.1 28.4 28.8 29.3 30.2 30.4 30.9 31.2 30.8 30.4 29.6 28.9 29.4 29.3 29.5 28.9 28.8 29.4 29.5 29.0 29.2 29.4 27.9 28.9 29.8 28.8 27.1 24.7 23.2 22.6 23.6 24.9 25.4 26.4 27.0 27.1 26.2 26.1 25.2 24.7 23.9 22.4 21.4 21.4 23.2 24.0 21.5 20.3 20.6 22.6 27.5 28.1 27.3 27.1 27.6 28.3 26.8 25.4 25.5 25.3 25.2 25.3 25.2 24.2 23.8 21.9 21.8 22.0 21.5 19.8 19.6 19.9 22.0 23.0 22.7 23.9 25.1 24.8 24.7
27.2 27.7 28.0 28.2 28.3 28.4 28.5 29.1 29.5 30.1 31.0 31.9 31.9 31.8 30.8 30.8 30.5 30.2 30.3 30.1 30.5 30.1 29.8 30.2 30.9 30.7 29.9 29.9 30.1 29.9 30.4 30.2 28.7 24.7 23.6 23.0 22.6 24.7 25.7 27.4 28.5 27.9 27.6 27.2 26.9 26.1 25.4 26.1 23.8 22.2 21.7 21.8 21.1 21.1 21.7 21.3 24.2 25.1 25.9 27.6 27.9 29.1 25.6 26.1 25.5 25.3 25.8 25.8 26.2 25.5 25.6 24.9 24.5 22.6 22.4 21.9 21.8 21.8 21.7 23.2 24.0 24.1 25.0 25.1 25.4
27.9 28.3 28.8 29.3 29.6 29.7 29.7 30.1 30.9 31.3 31.9 32.8 31.8 31.7 31.7 31.7 31.5 31.6 31.8 31.5 31.3 31.5 31.6 31.7 31.8 31.7 31.1 30.6 30.5 30.5 29.9 30.2 29.4 26.2 24.2 23.4 22.7 24.3 26.3 27.3 28.0 28.0 28.2 27.6 26.9 26.6 26.3 26.6 26.5 23.4 22.6 22.2 23.1 22.7 21.9 21.3 21.6 24.8 27.7 28.8 28.5 25.1 23.6 26.9 26.5 25.4 27.3 26.7 26.2 25.7 25.8 25.6 25.6 25.4 25.2 24.9 24.3 23.8 21.9 21.9 23.1 23.4 23.7 24.7 25.2
29.2 29.6 30.3 31.0 31.0 31.0 30.9 30.9 30.9 31.9 32.8 32.4 33.1 33.1 32.3 32.2 32.2 32.5 32.4 32.6 32.9 33.1 32.8 32.4 32.5 32.4 31.9 31.2 31.1 31.0 29.7 28.0 29.2 27.2 25.4 23.7 23.1 22.8 25.7 26.7 26.1 27.1 27.6 27.4 27.4 27.5 27.0 27.6 28.8 25.2 23.7 23.7 23.7 22.7 21.9 21.6 22.4 26.1 26.7 23.3 22.2 23.6 26.1 26.4 28.0 28.3 28.5 27.7 27.5 27.1 26.9 26.8 26.5 25.8 24.9 24.9 24.7 23.6 25.1 25.8 22.5 22.5 22.2 24.2 23.4
30.4 30.8 31.6 32.1 32.2 31.9 31.7 31.6 31.9 32.6 33.2 32.7 33.2 33.9 33.3 33.4 33.3 33.0 33.7 34.0 34.2 34.4 34.1 33.6 33.5 33.4 32.9 32.4 31.8 31.3 30.9 29.8 27.2 27.5 26.0 25.1 23.7 23.3 24.5 25.0 23.9 25.2 27.7 29.0 29.1 29.7 28.3 29.0 27.6 24.7 24.3 24.0 23.4 22.5 22.4 23.9 25.6 26.4 23.0 23.0 24.9 25.7 26.5 28.8 28.5 29.2 29.5 29.2 28.7 28.9 28.2 27.9 27.5 27.1 26.6 25.9 24.9 24.3 25.1 26.4 23.8 23.8 23.4 22.9 22.2
31.8 32.5 32.9 33.0 32.8 32.6 32.2 32.3 32.4 33.2 33.2 33.0 33.2 34.0 34.2 34.2 34.1 34.0 34.2 34.3 34.6 34.7 34.4 34.1 34.2 34.3 34.2 33.5 32.8 31.9 31.3 30.6 28.3 26.6 26.9 26.1 25.8 23.5 23.3 24.6 24.6 25.9 27.3 30.2 29.3 28.6 29.7 30.6 27.8 24.8 24.6 23.9 23.2 23.7 24.7 26.1 26.9 25.1 25.6 26.1 26.7 26.7 28.6 29.8 30.3 30.6 29.7 29.8 29.9 29.8 29.6 29.1 28.8 28.5 27.9 27.3 26.7 26.2 26.0 23.9 24.7 24.6 24.3 23.8 23.1
33.4 34.1 34.3 34.0 33.5 33.0 33.1 33.2 33.2 33.0 33.1 33.5 34.5 33.9 34.6 34.9 35.3 34.7 34.7 35.2 35.6 35.6 35.1 34.2 34.7 34.8 34.5 34.2 33.7 32.9 31.9 31.3 31.7 28.9 27.0 26.6 26.1 25.3 25.2 25.0 25.1 25.1 27.4 29.2 28.6 29.8 26.7 25.3 24.8 24.7 24.9 25.4 25.9 26.6 27.3 27.4 26.9 26.9 26.8 27.0 27.0 30.0 30.8 31.3 31.3 31.2 31.7 31.4 30.9 30.2 29.9 28.7 28.4 27.4 26.7 27.4 26.0 24.4 26.2 26.0 24.4 24.3 24.0 23.8 23.5
35.0 35.2 34.8 34.3 34.3 34.1 34.6 34.2 33.8 33.9 34.6 34.1 33.9 33.6 34.6 35.3 35.5 35.5 35.8 36.1 35.9 35.7 35.5 35.0 35.1 34.9 35.0 35.0 34.7 34.1 33.0 32.7 32.2 31.6 29.1 27.8 26.9 26.2 25.6 25.8 26.0 25.8 26.2 27.8 26.7 26.4 25.9 25.7 26.0 26.8 27.4 27.8 28.7 30.6 30.9 30.0 27.5 27.3 27.6 27.8 31.1 31.7 32.2 32.2 32.0 31.7 31.9 31.2 30.3 30.2 30.6 30.9 29.8 29.1 27.8 27.1 27.4 27.5 27.1 26.6 26.5 26.2 25.9 25.6 25.6
35.7 35.5 35.8 35.6 35.2 34.7 34.7 34.4 34.2 35.2 35.9 34.3 33.7 33.8 34.9 36.0 35.8 35.6 36.4 36.9 36.8 36.5 36.0 35.7 35.7 35.6 35.7 35.8 35.5 34.7 34.6 34.0 33.3 32.5 31.2 31.2 31.9 29.6 29.3 29.4 27.6 27.7 29.3 30.6 30.1 30.4 29.1 28.7 28.8 28.1 28.5 27.9 28.0 28.0 28.4 28.4 30.0 31.5 32.4 32.6 32.7 33.1 32.1 33.4 32.5 32.2 31.3 31.3 31.1 31.0 30.7 29.9 28.9 28.3 28.9 28.6 28.4 27.8 27.6 26.4 26.9 27.0 26.1 25.9 26.2
36.5 36.9 36.7 36.0 35.2 34.5 34.6 33.3 34.0 35.6 35.4 35.2 35.2 35.1 35.8 36.3 36.8 36.9 37.6 37.6 37.8 37.6 37.2 36.7 36.6 36.6 36.9 36.3 36.2 36.1 35.9 35.3 34.4 33.6 32.4 31.3 30.8 30.1 30.2 31.5 33.0 33.2 33.5 33.8 34.0 32.3 33.2 30.1 30.7 32.1 32.3 32.7 32.9 34.1 34.1 34.1 33.4 32.8 34.4 34.7 33.5 32.1 30.3 29.2 29.0 30.7 31.5 31.3 31.3 30.8 30.4 30.0 30.4 30.0 29.3 29.8 29.8 29.5 28.7 28.0 27.7 27.6 26.7 26.4 27.1
37.2 37.8 36.9 36.0 35.8 34.6 35.0 35.6 36.1 36.2 36.2 35.6 34.9 35.1 37.1 37.5 36.6 36.4 36.0 36.4 36.0 36.5 36.8 36.2 35.4 35.9 35.9 36.2 36.5 36.6 36.0 35.9 34.8 31.0 31.0 30.0 30.5 30.8 30.3 31.6 33.0 33.5 30.6 29.2 32.2 34.5 34.7 34.6 34.8 33.9 35.0 33.8 34.4 34.7 34.7 34.8 35.0 35.1 35.3 35.0 34.6 34.5 34.3 34.9 33.9 33.1 32.3 31.6 31.6 31.2 30.9 30.8 30.8 30.1 29.9 30.2 30.1 29.7 29.0 28.8 27.7 28.2 27.5 27.7 28.2
38.5 38.2 37.2 37.0 36.5 36.3 36.3 36.5 36.6 36.5 36.6 36.6 36.2 35.7 32.9 32.1 33.2 34.6 35.3 32.4 31.6 31.2 31.3 33.7 33.8 33.9 34.5 34.4 34.2 35.2 35.7 34.5 31.3 30.7 30.5 30.1 29.6 28.8 28.0 27.3 27.5 29.2 29.6 29.8 31.2 35.3 35.4 35.6 35.7 35.6 35.5 35.3 35.2 35.3 35.4 35.5 35.7 35.8 36.0 33.1 33.3 34.7 33.7 33.9 33.9 33.4 32.3 32.4 32.7 32.6 32.4 31.7 31.9 31.6 31.6 31.0 30.8 30.8 29.4 27.4 28.9 28.6 28.6 28.4 28.2
38.8 38.6 37.8 38.0 37.3 37.0 37.1 37.3 37.1 37.3 37.2 36.9 36.7 36.9 37.7 35.8 32.9 32.6 32.7 32.6 32.2 31.4 31.0 30.9 30.9 31.2 32.4 34.1 33.1 31.6 31.9 31.9 31.6 31.3 30.8 30.2 29.4 28.7 28.2 28.2 28.2 28.2 29.2 32.9 36.1 35.9 36.1 36.3 36.2 36.1 36.0 35.9 35.9 36.0 36.1 36.2 36.4 36.5 36.6 36.7 36.5 34.5 33.3 34.2 34.1 33.0 33.2 33.7 33.3 33.2 32.7 32.8 32.8 32.1 32.1 31.3 30.9 30.4 30.8 29.8 29.5 29.0 29.2 28.7 28.9
40.0 39.4 38.9 38.6 37.7 37.3 37.7 37.8 37.8 37.8 37.5 36.9 36.9 37.6 38.2 39.0 38.3 34.7 33.3 33.2 32.6 32.3 32.2 32.0 31.7 31.7 31.7 32.2 33.2 34.5 33.2 32.6 32.4 31.8 31.0 30.2 29.6 29.0 28.8 28.5 28.6 28.9 29.9 30.5 36.5 36.6 36.8 36.9 36.7 36.7 36.7 36.7 36.7 36.8 36.9 37.0 37.2 37.3 37.3 37.3 37.0 36.0 34.9 35.7 34.1 34.9 34.6 34.5 34.2 33.6 33.2 32.8 32.3 31.6 31.1 30.7 30.0 30.8 31.4 30.9 30.7 30.1 29.3 29.0 28.8
40.2 39.9 39.3 38.7 38.3 38.0 38.0 38.2 37.9 38.0 38.2 37.9 37.9 38.1 39.4 39.7 40.1 39.7 36.8 33.9 33.4 33.6 33.2 32.9 32.7 32.7 32.5 32.5 32.5 33.2 33.6 33.1 32.3 31.4 30.9 30.6 30.3 29.8 29.5 29.5 29.8 30.0 30.3 36.4 36.9 37.2 37.3 37.3 37.3 37.3 37.4 37.5 37.5 37.6 37.7 37.9 38.0 38.0 38.0 38.0 37.3 36.5 36.8 36.0 34.4 35.0 34.1 33.5 32.7 32.8 32.4 32.2 31.7 31.4 31.1 31.3 31.7 32.3 31.2 31.0 30.5 29.9 29.4 29.6 29.2
40.2 39.7 39.2 38.8 39.0 38.7 38.4 38.2 38.4 38.5 38.1 38.2 38.1 38.7 39.2 39.4 39.8 39.6 39.7 39.3 38.1 36.1 34.5 34.1 34.0 33.8 33.9 33.9 34.0 33.7 33.0 32.5 32.3 32.3 32.0 31.5 30.4 30.6 31.2 31.7 30.8 30.6 32.0 36.8 37.3 37.6 37.7 37.7 37.9 38.0 38.1 38.3 38.3 38.4 38.5 38.7 38.7 38.8 38.3 38.2 37.7 37.8 37.7 37.0 36.8 35.9 34.7 33.9 34.0 33.5 33.0 33.2 32.5 33.1 33.5 33.3 32.7 32.3 32.5 31.9 31.2 30.9 30.6 30.0 29.7
40.2 39.0 38.1 38.0 38.8 38.8 39.0 39.2 39.4 39.2 38.8 38.7 39.0 39.4 39.8 39.4 38.8 39.1 39.7 40.3 40.5 40.5 40.0 38.4 36.0 34.9 35.8 35.4 34.5 33.6 33.7 33.8 33.5 33.1 32.4 31.5 30.9 31.4 31.8 37.3 37.7 37.6 37.7 37.8 38.0 38.2 38.2 38.4 38.7 38.8 38.9 39.0 39.1 39.1 39.3 39.4 39.4 39.4 38.9 38.4 38.6 38.4 37.7 37.1 36.7 36.1 35.6 35.2 34.7 34.3 33.7 33.4 33.6 33.1 33.1 33.6 33.6 33.7 33.3 32.7 32.2 31.3 30.7 29.9 29.3
40.7 40.7 40.1 39.2 38.9 39.7 40.0 40.1 39.8 39.6 39.3 39.4 39.2 39.2 39.0 39.1 39.4 39.6 39.3 39.4 40.1 40.6 40.2 40.0 39.3 36.7 35.4 35.1 34.3 34.8 34.9 34.6 34.2 33.3 32.4 31.6 31.4 31.7 38.1 38.5 38.4 38.5 38.7 38.7 38.7 38.8 38.9 39.2 39.4 39.5 39.6 39.7 39.7 39.8 39.9 39.9 39.9 39.5 39.9 39.2 38.1 38.1 38.2 38.1 37.1 36.7 36.0 35.5 34.9 33.9 33.5 34.1 33.7 33.6 33.6 33.5 33.7 33.6 33.5 33.1 32.6 31.6 30.7 30.2 29.3
41.2 40.8 40.1 39.7 40.0 40.7 40.6 40.2 39.9 39.2 38.6 38.8 39.2 39.7 39.5 39.4 39.3 39.7 40.2 40.5 40.4 40.2 40.9 40.8 40.3 39.7 37.4 36.9 36.1 36.1 35.7 35.5 34.7 33.5 32.3 32.0 31.6 35.3 38.9 39.1 39.1 39.2 39.3 39.3 39.4 39.6 39.8 40.0 40.1 40.2 40.3 40.3 40.3 40.4 40.2 40.2 40.0 40.3 37.9 37.7 38.6 38.6 38.9 38.6 37.0 35.9 35.9 35.7 35.2 35.1 34.9 34.6 34.2 33.8 33.6 33.9 33.3 33.0 32.6 32.1 31.6 30.7 29.8 29.5 29.2
41.3 40.4 39.9 39.6 40.1 40.4 40.6 40.6 40.1 38.9 39.6 39.6 39.7 40.0 40.2 40.5 40.5 40.5 40.7 40.9 40.2 40.7 41.8 41.9 39.8 41.3 41.2 40.6 37.3 38.0 37.9 36.4 35.8 35.7 35.2 35.1 36.2 39.3 39.5 39.6 39.7 39.7 39.7 39.8 40.0 40.2 40.4 40.6 40.7 40.8 40.8 40.9 40.8 40.4 40.4 40.5 40.1 40.0 39.6 39.5 38.6 38.3 35.8 35.9 35.6 36.3 36.0 35.9 35.7 35.3 34.7 34.4 34.1 33.7 33.1 33.6 33.7 33.5 32.7 31.7 31.1 30.8 30.0 29.5 30.0
40.9 39.2 38.6 38.7 38.9 40.0 40.7 40.7 40.6 40.7 40.7 40.4 40.7 40.8 41.0 41.2 41.2 41.4 41.6 41.8 42.2 42.3 42.0 42.7 42.9 42.1 41.2 40.7 40.8 38.9 38.9 40.7 40.9 40.5 39.4 39.3 39.0 39.6 40.1 40.1 40.1 40.1 40.2 40.3 40.6 40.8 41.0 41.2 41.1 41.3 40.6 41.1 40.2 40.4 40.4 40.3 40.5 40.3 39.8 39.7 39.3 39.2 38.5 38.5 38.4 38.2 37.4 37.2 36.4 35.7 35.2 34.8 34.3 34.0 33.6 33.8 33.9 33.1 32.2 31.0 30.3 30.2 30.5 30.8 30.6
40.8 41.0 40.1 39.1 40.0 39.8 40.1 40.6 40.7 41.4 41.2 41.7 42.3 41.9 41.9 41.9 42.2 42.4 42.6 42.8 43.0 42.7 43.1 43.0 42.7 42.3 41.2 41.5 40.6 40.0 41.3 41.4 41.7 41.3 41.2 40.8 40.4 40.5 40.7 40.5 40.4 40.5 40.7 40.8 41.0 41.3 41.5 41.7 41.5 41.2 41.1 41.3 40.8 40.5 40.3 40.2 40.4 40.0 40.0 39.7 39.6 39.3 38.8 38.7 38.6 38.4 38.1 37.2 36.4 35.7 35.4 35.3 34.8 34.3 34.3 34.2 33.8 33.0 32.2 31.5 30.5 30.3 30.6 31.1 31.0
41.4 40.9 40.1 39.8 39.8 40.5 40.8 40.9 41.9 42.0 42.3 42.1 42.1 42.8 43.1 42.3 42.5 42.6 43.2 43.2 43.0 42.9 43.0 43.2 43.2 42.5 40.9 38.7 37.6 37.8 40.9 42.3 41.6 41.8 41.6 40.9 40.6 40.9 40.8 41.1 41.0 41.1 41.2 41.4 41.6 41.8 42.0 41.6 41.1 41.1 41.0 41.0 40.7 40.5 40.4 40.4 40.3 40.0 40.1 39.2 39.0 38.6 38.5 38.7 38.6 38.1 37.5 37.1 36.8 36.5 35.9 35.4 35.0 35.2 35.6 34.7 32.6 32.0 31.9 31.2 30.7 30.6 30.7 31.0 31.4
41.6 41.5 41.3 41.2 40.7 41.2 41.7 41.7 41.8 41.4 42.5 42.4 42.7 43.1 43.1 43.2 43.4 43.6 43.1 42.9 42.6 42.5 43.1 43.4 43.2 42.7 40.1 38.1 38.3 38.0 40.0 42.0 41.4 41.6 41.8 41.6 41.3 40.9 40.1 40.7 41.0 41.8 41.8 41.9 42.1 41.9 41.5 41.3 41.0 41.0 41.2 40.9 40.8 40.6 40.5 40.8 40.5 40.2 39.8 39.6 39.3 39.1 38.8 38.7 38.3 37.9 37.7 37.4 37.2 36.9 36.3 35.6 35.3 35.1 34.7 33.4 33.8 33.3 32.4 31.7 31.4 31.3 31.4 31.7 31.9
41.4 41.4 41.8 41.5 41.8 41.9 41.9 42.1 42.3 43.6 43.3 43.6 43.6 42.2 42.0 42.8 44.2 43.4 43.4 42.9 42.9 42.8 43.4 43.5 43.2 42.8 42.0 39.5 39.4 39.0 41.7 43.0 41.3 41.8 42.2 41.9 41.8 41.3 41.5 41.2 41.3 41.9 42.6 42.6 39.5 39.4 41.2 41.1 41.1 41.0 40.9 40.7 40.8 40.2 39.9 40.1 39.9 40.0 39.9 39.7 39.4 39.2 39.0 38.4 37.9 37.5 37.3 37.6 37.5 36.7 36.4 36.4 36.1 36.1 35.7 34.8 34.1 33.2 32.7 32.4 32.1 31.7 31.9 32.1 32.4
41.7 41.7 41.9 41.8 41.9 41.9 41.7 42.5 43.0 42.9 43.8 42.3 41.9 42.3 42.7 43.5 43.9 44.5 44.4 44.5 43.9 43.6 43.6 43.6 43.1 43.0 43.2 42.2 41.2 42.0 43.6 43.4 44.0 43.4 42.5 41.7 42.1 41.9 42.0 41.8 41.4 41.5 42.0 40.4 40.5 40.2 40.0 41.1 40.9 40.7 39.6 39.6 39.4 39.2 39.2 39.1 38.9 39.8 39.8 39.6 39.2 38.6 38.5 38.2 37.8 37.6 37.4 37.5 37.2 37.0 37.0 36.7 36.4 36.3 35.9 35.2 34.8 34.6 34.4 33.8 33.1 33.0 32.9 33.1 33.1
42.3 42.3 42.7 43.2 42.7 43.2 43.2 43.3 43.3 43.6 42.5 42.9 44.6 44.4 43.6 44.7 44.5 44.4 44.2 44.4 43.8 43.8 44.0 43.5 43.2 43.3 43.2 43.4 43.7 43.4 43.7 43.9 42.9 42.6 42.8 42.8 42.8 42.7 42.2 41.9 42.0 42.0 41.9 40.4 40.5 40.4 40.5 40.3 40.9 41.0 40.8 39.7 39.6 39.4 39.3 39.0 38.8 38.7 38.5 38.7 39.1 38.9 38.5 38.0 37.2 36.6 36.5 37.1 37.2 37.3 37.2 37.2 37.3 37.1 36.7 36.0 35.4 35.4 35.3 34.8 34.2 33.8 33.8 34.1 34.5
42.4 42.6 42.5 43.1 43.2 43.0 43.0 44.0 42.8 43.9 44.3 44.2 44.4 44.8 45.0 44.7 45.0 44.9 44.2 44.1 43.9 44.1 44.3 44.0 44.0 43.8 43.5 43.9 43.6 43.2 43.6 44.0 43.8 43.3 42.4 42.7 42.7 42.4 42.0 42.2 42.4 40.2 40.8 40.8 40.5 40.4 40.5 40.4 40.0 40.5 40.5 40.2 39.5 39.4 39.0 38.7 38.3 38.0 37.8 37.7 37.6 37.4 36.7 36.2 35.7 36.0 36.3 37.2 37.3 37.4 37.6 37.6 37.6 37.1 36.6 36.6 36.4 35.8 35.4 34.9 34.8 34.7 34.9 34.9 34.8
42.5 43.1 42.5 43.0 43.1 42.8 42.7 42.6 43.6 43.7 44.1 43.9 44.0 44.3 44.5 44.6 44.4 44.1 43.6 43.4 43.3 43.6 44.3 44.4 44.3 44.4 44.2 44.2 44.1 44.2 43.6 43.3 43.7 43.2 43.2 42.9 42.7 42.5 42.3 42.5 41.9 40.6 41.1 40.9 40.5 40.4 40.4 40.2 39.9 39.8 39.6 39.3 39.1 38.9 38.6 38.3 37.9 37.4 36.9 36.5 36.2 35.8 35.5 35.2 35.6 36.2 36.6 36.7 36.8 37.5 37.8 38.0 38.0 37.8 37.4 36.9 36.7 36.3 36.0 36.1 36.0 36.1 35.9 35.8 35.7
42.7 42.9 43.1 42.8 43.3 43.5 43.5 43.6 43.5 42.4 43.6 44.0 44.4 44.0 43.9 44.1 44.5 44.2 45.2 44.7 44.8 44.7 44.4 44.5 44.7 44.4 44.0 44.1 43.8 43.7 43.6 43.5 43.1 42.8 42.8 42.7 42.6 42.2 42.2 42.7 42.1 41.7 40.9 40.8 40.5 40.3 40.1 39.9 39.7 39.5 39.2 39.0 38.7 38.6 38.2 37.7 37.2 36.8 36.2 35.7 35.4 35.2 35.0 35.1 35.7 36.0 36.2 36.5 36.9 37.2 37.5 37.7 37.8 37.8 37.5 37.4 37.5 37.2 36.9 36.6 36.4 36.3 36.3 36.2 36.0
42.5 43.0 43.3 43.3 43.5 43.4 43.5 43.3 43.1 43.6 43.8 44.0 44.1 44.2 44.2 44.6 44.5 44.8 44.6 45.0 44.7 44.5 44.4 44.4 44.2 44.0 44.2 43.9 43.4 43.6 43.5 43.2 43.8 43.7 43.2 42.8 42.4 42.1 41.8 41.7 40.4 40.6 40.8 40.8 40.5 40.4 40.2 39.8 39.5 39.1 38.8 38.4 38.2 38.0 37.7 37.2 36.8 36.3 35.9 35.6 35.4 35.2 35.2 35.2 35.5 36.0 35.9 36.4 37.0 37.3 37.3 37.8 38.0 37.9 37.7 37.7 37.6 37.4 37.2 37.0 36.9 36.5 36.2 36.2 35.9
42.9 42.8 43.2 43.2 43.4 43.6 43.2 43.4 43.5 43.8 43.7 44.1 44.5 44.6 44.3 44.5 44.8 44.8 44.5 44.5 44.5 44.0 43.7 43.4 43.4 43.6 43.7 43.7 43.7 43.8 43.7 43.9 43.7 43.4 43.2 42.7 42.3 41.8 41.2 40.8 40.8 40.7 40.7 40.7 40.4 40.1 39.8 39.4 39.0 38.6 38.2 37.8 37.5 37.1 36.7 36.4 36.1 35.7 35.6 35.5 35.1 35.1 35.2 35.2 35.4 35.4 35.9 36.8 37.1 37.3 37.5 37.7 37.9 37.8 37.6 37.3 37.2 37.2 37.2 36.8 36.5 35.9 35.7 35.9 35.8
42.6 42.7 43.2 43.3 43.5 43.5 43.7 44.1 44.0 43.9 44.3 44.3 44.5 44.6 44.3 44.4 44.4 44.2 44.2 44.2 44.3 44.0 43.9 44.1 44.3 44.2 44.4 44.2 43.8 43.7 43.8 43.8 43.5 43.2 42.6 42.1 41.6 41.1 40.9 40.8 40.7 40.7 40.6 40.5 40.2 39.8 39.3 38.8 38.5 38.1 37.6 37.1 36.7 36.3 35.9 35.6 35.4 35.3 35.1 35.0 35.1 35.2 35.2 35.2 35.6 35.8 35.8 36.0 36.8 37.3 37.7 37.9 37.9 37.8 37.3 36.8 36.5 36.5 36.1 35.7 35.6 35.7 35.7 35.6 35.5